sat.trackr.live / text

‹ back to catalog

STARLINK-3986

NORAD 52623 · 2022-052AB

PAYLOAD ACTIVE UNKNOWN

§ Identity

Operator
Country
US
Launch date
2022-05-14
Launch site
AFETR
Launch vehicle
Mass (kg)
RCS (m²)

Purposes: comms

External: N2YO · Heavens-Above · Gunter

§ Orbital elements

Epoch: 2026-09-20T02:29:09.888288Z

Period
93.79 min
Inclination
53.1590°
Eccentricity
0.0001104
Mean motion
15.35402770 rev/d
Perigee alt
459.0 km
Apogee alt
460.5 km
Semi-major
6,837.9 km
B*
4.7929e-6
RAAN
104.0449°
Arg perigee
86.5712°
Mean anomaly
273.5417°
Rev number
24,050

§ Raw data

STARLINK-39861 52623U 22052AB  26263.10358667 -.00000213  00000+0  47929-5 0  99962 52623  53.1590 104.0449 0001104  86.5712 273.5417 15.35402770240504

JSON: /api/v1/satellites/52623 · /tle

For live sub-satellite position, see the globe view (requires WebGL).

§ Visibility from observer

Set your observer location to see the next 7 days of passes ≥ 10°. The values pass through the URL so the page stays shareable.

No JS? Fill the form by hand. The geolocation button needs JavaScript.